Regional Weather Roundup
Issued by NWS

Home | Current Version | Previous Version | Graphics & Text | Print | Product List | Glossary Off
Versions: 1 2 3 4 5 6 7 8 9 10 11 12 13 14 15 16 17 18 19 20 21 22 23 24 25 26 27 28 29 30 31 32 33 34 35 36 37 38 39 40 41 42 43 44 45 46 47 48 49 50

000
ASUS43 KDMX 041307
RWRIA

WEATHER ROUNDUP FOR IOWA
NATIONAL WEATHER SERVICE DES MOINES IA
800 AM CDT FRI SEP 04 2015

NOTE: "FAIR" INDICATES FEW OR NO CLOUDS BELOW 12,000 FEET WITH NO
SIGNIFICANT WEATHER AND/OR OBSTRUCTIONS TO VISIBILITY.

* - THESE STATIONS ARE NOT NWS STATIONS...THUS NOT UNDER NWS
QUALITY CONTROL.  THEY ALSO DO NOT REPORT WEATHER SUCH
AS PRECIPITATION OR FOG.

IAZ001>003-012>014-020>022-031>034-043>046-041400-
   NORTHWEST IOWA

CITY           SKY/WX    TMP DP  RH WIND       PRES   REMARKS
CARROLL *      SUNNY     72  70  94 S12       29.94R
CHEROKEE *     PTSUNNY   73  70  88 S9        29.91R
DENISON *      SUNNY     73  68  83 S7G14     29.91S
LE MARS *      PTSUNNY   73  70  88 S10       29.89R
ORANGE CITY *  LGT RAIN  72  70  94 S13       29.88S
SHELDON *      SUNNY     72  68  88 S10G17    29.88S
SIOUX CITY     CLOUDY    72  66  81 SE10      29.88R
SPENCER        MOSUNNY   72  67  84 S8        29.91R
STORM LAKE *   SUNNY     72  70  94 S8        29.93S
$$

IAZ055>058-069>071-079>083-090>094-041400-
   SOUTHWEST IOWA

CITY           SKY/WX    TMP DP  RH WIND       PRES   REMARKS
ATLANTIC *     PTSUNNY   73  70  88 S6        29.95R
AUDUBON *      SUNNY     73  68  83 S6        29.96R
CLARINDA *     SUNNY     70  70 100 CALM      29.97R
COUNCIL BLFS * SUNNY     70  68  94 SE6       29.95R
CRESTON *      SUNNY     72  68  88 S7        29.99R
LAMONI         MOSUNNY   72  68  87 S7        29.99R
RED OAK *      MOSUNNY   73  70  88 S5        29.95R
SHENANDOAH *   SUNNY     73  70  88 S3        29.95R
$$

IAZ047>049-059>061-072>074-084-041400-
   CENTRAL IOWA

CITY           SKY/WX    TMP DP  RH WIND       PRES   REMARKS
AMES           SUNNY     69  68  96 SE5       29.97R
ANKENY *       SUNNY     72  70  94 CALM      29.97R
CHARITON *     SUNNY     70  68  94 S7        29.99R
DES MOINES     MOSUNNY   73  67  81 S8        29.96R
GRINNELL*      SUNNY     72  68  88 SE5       30.00R
KNOXVILLE *    SUNNY     72  68  88 S7        29.97R
MARSHALLTOWN   SUNNY     71  68  90 SE5       29.97R
PELLA *        SUNNY     73  72  94 S3        29.99R
PERRY *          N/A     70  68  94 CALM      29.96R
$$

IAZ004>006-015-016-023>025-035-036-041400-
   NORTH CENTRAL IOWA

CITY           SKY/WX    TMP DP  RH WIND       PRES   REMARKS
ALGONA *       SUNNY     72  68  88 S12       29.94R
CLARION *      SUNNY     72  68  88 S7        29.96R
ESTHERVILLE    SUNNY     69  68  96 S9        29.92R
FORT DODGE *   SUNNY     72  66  83 S6        29.96R
MASON CITY       N/A     71  69  93 S6        29.98R
FOREST CITY *  MOSUNNY   70  70 100 N5        29.96R
IOWA FALLS *     N/A     72  68  88 S5        29.99R
$$

IAZ007>011-017>019-026>030-037>042-050>054-066-041400-
   NORTHEAST IOWA

CITY           SKY/WX    TMP DP  RH WIND       PRES   REMARKS
CEDAR RAPIDS   SUNNY     71  70  96 S3        29.98R
CHARLES CITY * SUNNY     72  72 100 SE8       29.99R
CLINTON *      MOSUNNY   72  70  94 E3        30.01R
DECORAH *      SUNNY     70  68  94 SE6       29.98S
DUBUQUE        SUNNY     70  68  93 E3        30.01R FOG
MONTICELLO *   CLOUDY    72  70  94 CALM      29.99R FOG
OELWEIN *      SUNNY     72  70  94 SE3       30.00R FOG
WATERLOO       SUNNY     73  70  90 SE3       29.97R
$$

IAZ064-065-067-068-078-041400-
   EAST CENTRAL IOWA

CITY           SKY/WX    TMP DP  RH WIND       PRES   REMARKS
DAVENPORT      MOSUNNY   72  70  93 CALM      30.00R
IOWA CITY      SUNNY     71  69  93 SE3       29.99R
MT. PLEASANT * MOSUNNY   75  70  83 CALM      29.99R
MUSCATINE *    SUNNY     70  68  94 CALM      29.99R
QUAD CITIES    SUNNY     73  69  87 CALM      29.98R
$$

IAZ062-063-075>077-085>089-095>099-041400-
   SOUTHEAST IOWA

CITY           SKY/WX    TMP DP  RH WIND       PRES   REMARKS
BURLINGTON     SUNNY     73  71  93 CALM      29.99R
FAIRFIELD *    SUNNY     73  68  83 CALM      29.99R
FORT MADISON * SUNNY     73  72  94 CALM      30.00R
KEOKUK *       SUNNY     75  70  83 SW6       29.99R
OSKALOOSA *      N/A     70  68  94 S3        29.99R
CENTERVILLE *  SUNNY     70  68  94 S3        30.01R
OTTUMWA        SUNNY     73  70  90 S5        29.97R
WASHINGTON *     N/A    N/A N/A N/A MISG        N/A
$$

ABBREVIATIONS USED IN REMARKS
   TC - TEMPERATURES IN CELSIUS
  WCI - WIND CHILL INDEX
   HX - HEAT INDEX
  VSB - VISIBILITY
$$




USA.gov is the U.S. government's official web portal to all federal, state and local government web resources and services.